Fort Riley, KS

4:47 AM CDT on September 29, 2016 (GMT -0500)
Marshall Army Air Field

Weather History for KFRI - February, 2013

Change the Weather History Date:

Sunday, February 17, 2013

  Actual Average (KMHK) Record (KMHK)
Temperature  
Mean Temperature 45 °F 33 °F  
Max Temperature 68 °F 46 °F 71 °F (2011)
Min Temperature 22 °F 21 °F 5 °F (2006)
Degree Days  
Heating Degree Days 20 32  
Month to date heating degree days 568  
Since 1 July heating degree days 3834  
Cooling Degree Days 0 0  
Month to date cooling degree days 0  
Year to date cooling degree days 0  
Moisture  
Dew Point 26 °F    
Average Humidity 51    
Maximum Humidity 99    
Minimum Humidity 21    
Precipitation  
Precipitation 0.00 in 0.04 in 0.50 in (2008)
Month to date precipitation 0.61  
Year to date precipitation 1.26  
Sea Level Pressure  
Sea Level Pressure 29.82 in    
Wind  
Wind Speed 7 mph (SSE)    
Max Wind Speed 20 mph    
Max Gust Speed 23 mph    
Visibility 10 miles    
Events      
T = Trace of Precipitation, MM = Missing Value Source: NWS Daily Summary

Daily Weather History Graph

Daily Weather History Graph

Search for Another Location

Airport or City:

Trip Planner

Search our weather history database for the weather conditions in past years. The results will help you decide how hot, cold, wet, or windy it might be!

Date:

Astronomy

Feb. 17, 2013 Rise Set
Actual Time 7:15 AM CST 6:06 PM CST
Civil Twilight 6:48 AM CST 6:34 PM CST
Nautical Twilight 6:17 AM CST 7:05 PM CST
Astronomical Twilight 5:46 AM CST 7:36 PM CST
Moon 11:13 AM CST (2/17) 12:59 AM CST (2/17)
Length of Visible Light 11h 45m
Length of Day
10h 51m
Waxing Crescent, 49% of the Moon is Illuminated
Feb 17
Waxing Crescent
Feb 17
First Quarter
Feb 25
Full
Mar 4
Last Quarter
Mar 11
New

Hourly Weather History & Observations

Time (CST) Temp. Windchill Dew Point Humidity Pressure Visibility Wind Dir Wind Speed Gust Speed Precip Events Conditions
12:55 AM 31.3 °F 25.6 °F 18.9 °F 60% 30.03 in 10.0 mi South 5.8 mph - N/A   Clear
1:55 AM 30.0 °F 24.1 °F 18.9 °F 63% 30.02 in 10.0 mi SSW 5.8 mph - N/A   Clear
2:55 AM 28.4 °F 24.6 °F 18.7 °F 67% 30.02 in 10.0 mi SSW 3.5 mph - N/A   Clear
3:55 AM 28.0 °F - 19.2 °F 70% 30.01 in 10.0 mi Calm Calm - N/A   Clear
5:55 AM 23.9 °F - 20.3 °F 86% 29.99 in 10.0 mi Calm Calm - N/A   Clear
6:55 AM 22.1 °F - 21.4 °F 97% 29.98 in 10.0 mi Calm Calm - N/A   Clear
7:55 AM 23.2 °F 18.7 °F 22.8 °F 99% 29.98 in 10.0 mi NNE 3.5 mph - N/A   Clear
8:55 AM 32.2 °F - 25.7 °F 77% 29.96 in 10.0 mi Calm Calm - N/A   Clear
9:38 AM 39.2 °F - 28.4 °F 65% 29.94 in 10.0 mi Calm Calm - N/A   Clear
9:55 AM 41.5 °F - 28.9 °F 61% 29.94 in 10.0 mi Calm Calm - 0.00 in   Clear
10:55 AM 49.8 °F - 30.0 °F 47% 29.91 in 10.0 mi SE 3.5 mph - N/A   Clear
11:55 AM 57.4 °F - 30.0 °F 35% 29.87 in 10.0 mi SE 8.1 mph - N/A   Clear
12:55 PM 62.2 °F - 28.8 °F 28% 29.82 in 10.0 mi South 10.4 mph - N/A   Clear
1:55 PM 65.5 °F - 28.8 °F 25% 29.77 in 10.0 mi South 12.7 mph - N/A   Clear
2:55 PM 66.9 °F - 27.7 °F 23% 29.73 in 10.0 mi SSE 15.0 mph - N/A   Clear
3:55 PM 68.4 °F - 26.2 °F 21% 29.69 in 10.0 mi South 16.1 mph 23.0 mph N/A   Clear
4:55 PM 65.7 °F - 25.0 °F 21% 29.68 in 10.0 mi South 13.8 mph - N/A   Clear
5:55 PM 60.3 °F - 29.8 °F 32% 29.68 in 10.0 mi SSE 10.4 mph - N/A   Clear
6:55 PM 56.5 °F - 30.2 °F 37% 29.67 in 10.0 mi SSE 15.0 mph - N/A   Clear
7:55 PM 54.7 °F - 31.1 °F 41% 29.65 in 10.0 mi SSE 17.3 mph 23.0 mph N/A   Clear
8:55 PM 53.4 °F - 30.6 °F 42% 29.63 in 10.0 mi South 13.8 mph - N/A   Clear
9:55 PM 53.1 °F - 28.6 °F 39% 29.61 in 10.0 mi South 13.8 mph - N/A   Clear
10:55 PM 54.9 °F - 29.3 °F 38% 29.58 in 10.0 mi South 15.0 mph - N/A   Clear
11:55 PM 54.1 °F - 29.8 °F 39% 29.55 in 10.0 mi South 19.6 mph - N/A   Clear